Hourly Data Report for February 19, 2021

TORONTO CITY
ONTARIO
Current Station Operator: ECCC - MSC

43°40'00.000" N
79°24'00.000" W
112.50 m
6158355
71508
XTO

Download Data

Hourly Data (February 2021)
Hourly Data Report for February 19, 2021
TIME
LST
Temp Definition
°C
Dew Point Definition
°C
Rel Hum Definition
%
Precip. Amount Definition
mm

Wind Dir Definition
10's deg

Wind Spd Definition
km/h
Visibility Definition
km
Stn Press Definition
kPa
Hmdx Definition


Wind Chill Definition


Weather Definition


00:00 -5.1 -7.7 82 0.1       100.94     LegendNANA
01:00 -5.3 -8.1 81 0.1       100.91     LegendNANA
02:00 -5.4 -7.7 84 0.6       100.87     LegendNANA
03:00 -5.4 -7.7 84 0.4       100.83     LegendNANA
04:00 -5.3 -7.9 82 0.1       100.75     LegendNANA
05:00 -5.3 -7.8 83 0.1       100.76     LegendNANA
06:00 -5.3 -7.7 83 0.2       100.72     LegendNANA
07:00 -5.3 -7.8 83 0.1       100.68     LegendNANA
08:00 -5.1 -7.7 82 0.1       100.69     LegendNANA
09:00 -4.7 -7.6 81 0.2       100.69     LegendNANA
10:00 -4.4 -7.3 80 0.0       100.67     LegendNANA
11:00 -3.7 -6.9 78 0.1       100.66     LegendNANA
12:00 -3.2 -6.9 76 0.0       100.66     LegendNANA
13:00 -1.9 -6.3 72 0.0       100.56     LegendNANA
14:00 -2.0 -5.9 75 0.0       100.56     LegendNANA
15:00 -1.8 -7.0 68 0.0       100.57     LegendNANA
16:00 -1.8 -6.3 71 0.0       100.60     LegendNANA
17:00 -2.3 -5.3 80 0.0       100.59     LegendNANA
18:00 -2.5 -5.3 81 0.2       100.61     LegendNANA
19:00 -2.9 -4.8 87 0.2       100.65     LegendNANA
20:00 -2.6 -5.8 79 0.1       100.66     LegendNANA
21:00 -3.3 -6.7 77 0.0       100.67     LegendNANA
22:00 -3.2 -5.5 84 0.0       100.72     LegendNANA
23:00 -3.3 -7.7 72 0.0       100.69     LegendNANA

Notes on Data Quality.

Legend

  • E = Estimated
  • M = Missing
  • NA = Not Available*
  • [empty] = Indicates an unobserved value
Date modified: